Location: Newark
(54.6833°N, 25.2833°E)
Time: 01:14:04
(UTC+00:00)

A-11 Canister half - Pass Details

Date: 27 January 2021
Orbit: 1525 x 1684 km, 47.3° (Epoch: 05 March)

Event Time Altitude Azimuth Distance (km) Brightness Sun altitude
Rises 17:33:48 0° 280° (W) 4,730 13.0 -23.7°
Reaches altitude 10° 17:37:07 10° 273° (W) 3,764 12.1 -24.2°
Maximum altitude 17:45:30 37° 211° (SSW) 2,322 10.1 -25.4°
Enters shadow 17:52:49 14° 154° (SSE) 3,506 10.6 -26.5°
